Date String (YYYY-MM-DD hh:mm:ss) UTC,Instrument flags,Ambient pressure (hPa),Sample flow (lpm),Bypass flow (lpm),Sample temperature (°C),Ambient temperature (°C),ASC tube jacket temperature (°C),LED temperature (°C),Box temperature (°C),Sample RH (%),Span deviation,Mass concentration (μg/m³),Mass concentration (μg/m³),Mass concentration (μg/m³)
DateTimeUTC,F1_M11,P_M11,Q1_M11,Q2_M11,T1_M11,T2_M11,T3_M11,T4_M11,T5_M11,U1_M11,ZSPAN_M11,X0_M11,X2_M11,X1_M11
2023-02-08 15:00:00,,0824.6,5.00,0.00,22.6,21.2,00.0,31.4,24.3,09.1,0000.0,0003.51,0001.87,0001.30
2023-02-08 15:01:00,,0824.5,4.99,0.00,22.6,21.2,00.0,31.4,24.3,10.1,0000.0,0003.52,0001.87,0001.30
2023-02-08 15:02:00,,0824.4,4.99,0.00,22.6,21.2,00.0,31.4,24.3,10.6,0000.0,0003.64,0001.92,0001.30
2023-02-08 15:03:00,,0824.4,4.98,0.00,22.6,21.2,00.0,31.4,24.3,10.2,0000.0,0003.80,0002.00,0001.31
2023-02-08 15:04:00,,0824.4,4.92,0.00,22.6,21.3,00.0,31.4,24.3,09.9,0000.0,0003.60,0001.99,0001.30
2023-02-08 15:05:00,,0824.4,4.98,0.00,22.6,21.3,00.0,31.4,24.3,09.5,0000.0,0003.42,0001.96,0001.30
2023-02-08 15:06:00,,0824.4,4.98,0.00,22.6,21.3,00.0,31.4,24.3,09.3,0000.0,0003.51,0001.99,0001.31
2023-02-08 15:07:00,,0824.5,4.98,0.00,22.6,21.3,00.0,31.4,24.3,09.2,0000.0,0003.63,0002.04,0001.33
2023-02-08 15:08:00,,0824.4,5.00,0.00,22.6,21.3,00.0,31.4,24.3,09.5,0000.0,0003.63,0002.04,0001.35
2023-02-08 15:09:00,,0824.4,5.03,0.00,22.6,21.3,00.0,31.4,24.3,09.7,0000.0,0003.76,0002.07,0001.37
2023-02-08 15:10:00,,0824.4,5.03,0.00,22.6,21.3,00.0,31.4,24.4,10.1,0000.0,0003.78,0002.11,0001.39
2023-02-08 15:11:00,,0824.5,5.00,0.00,22.6,21.4,00.0,31.4,24.3,10.0,0000.0,0005.25,0002.10,0001.40
2023-02-08 15:12:00,,0824.5,5.03,0.00,22.6,21.4,00.0,31.4,24.4,09.8,0000.0,0005.68,0002.13,0001.41
2023-02-08 15:13:00,,0824.4,5.01,0.00,22.6,21.4,00.0,31.4,24.4,10.3,0000.0,0006.38,0002.20,0001.40
2023-02-08 15:14:00,,0824.3,4.95,0.00,22.6,21.4,00.0,31.4,24.4,10.5,0000.0,0007.50,0002.19,0001.40
2023-02-08 15:15:00,,0824.3,5.04,0.00,22.6,21.4,00.0,31.4,24.4,10.4,0000.0,0007.64,0002.26,0001.42
2023-02-08 15:16:00,,0824.3,5.00,0.00,22.6,21.4,00.0,31.4,24.4,10.2,0000.0,0008.01,0002.46,0001.44
2023-02-08 15:17:00,,0824.4,5.01,0.00,22.6,21.4,00.0,31.4,24.4,09.7,0000.0,0008.62,0002.50,0001.46
2023-02-08 15:18:00,,0824.2,4.99,0.00,22.6,21.4,00.0,31.4,24.4,10.0,0000.0,0009.79,0002.57,0001.47
2023-02-08 15:19:00,,0824.2,4.99,0.00,22.7,21.4,00.0,31.4,24.4,09.5,0000.0,0010.47,0002.62,0001.47
2023-02-08 15:20:00,,0824.3,5.00,0.00,22.7,21.4,00.0,31.4,24.4,09.5,0000.0,0011.13,0002.66,0001.47
2023-02-08 15:21:00,,0824.3,4.99,0.00,22.7,21.4,00.0,31.4,24.4,09.6,0000.0,0011.14,0002.64,0001.47
2023-02-08 15:22:00,,0824.3,5.01,0.00,22.7,21.4,00.0,31.4,24.4,09.5,0000.0,0010.54,0002.67,0001.48
2023-02-08 15:23:00,,0824.3,5.00,0.00,22.7,21.4,00.0,31.5,24.4,09.7,0000.0,0010.26,0002.70,0001.49
2023-02-08 15:24:00,,0824.2,5.03,0.00,22.7,21.5,00.0,31.5,24.4,09.5,0000.0,0010.00,0002.64,0001.51
2023-02-08 15:25:00,,0824.2,5.01,0.00,22.7,21.5,00.0,31.5,24.4,08.8,0000.0,0009.32,0002.64,0001.54
2023-02-08 15:26:00,,0824.2,5.03,0.00,22.7,21.5,00.0,31.5,24.4,09.0,0000.0,0009.28,0002.64,0001.58
2023-02-08 15:27:00,,0824.2,4.98,0.00,22.7,21.5,00.0,31.5,24.4,09.0,0000.0,0009.06,0002.50,0001.61
2023-02-08 15:28:00,,0824.2,4.98,0.00,22.7,21.5,00.0,31.5,24.5,08.9,0000.0,0008.69,0002.52,0001.64
2023-02-08 15:29:00,,0824.2,4.99,0.00,22.7,21.5,00.0,31.5,24.5,08.6,0000.0,0007.13,0002.43,0001.68
2023-02-08 15:30:00,,0824.2,4.98,0.00,22.7,21.5,00.0,31.5,24.5,09.0,0000.0,0006.13,0002.41,0001.73
2023-02-08 15:31:00,,0824.3,5.03,0.00,22.7,21.5,00.0,31.5,24.5,09.1,0000.0,0005.46,0002.48,0001.78
2023-02-08 15:32:00,,0824.2,5.01,0.00,22.8,21.5,00.0,31.5,24.5,08.8,0000.0,0006.02,0002.56,0001.84
2023-02-08 15:33:00,,0824.2,4.98,0.00,22.8,21.5,00.0,31.5,24.5,08.8,0000.0,0006.22,0002.59,0001.86
2023-02-08 15:34:00,,0824.2,5.03,0.00,22.8,21.5,00.0,31.5,24.5,09.0,0000.0,0006.19,0002.66,0001.91
2023-02-08 15:35:00,,0824.2,5.00,0.00,22.8,21.5,00.0,31.5,24.5,09.3,0000.0,0006.30,0002.74,0001.96
2023-02-08 15:36:00,,0824.3,5.00,0.00,22.8,21.5,00.0,31.5,24.5,09.1,0000.0,0006.78,0002.74,0002.00
2023-02-08 15:37:00,,0824.2,5.01,0.00,22.8,21.6,00.0,31.6,24.5,09.2,0000.0,0006.51,0002.72,0002.01
2023-02-08 15:38:00,,0824.1,5.00,0.00,22.8,21.6,00.0,31.6,24.5,09.3,0000.0,0006.42,0002.73,0002.01
2023-02-08 15:39:00,,0824.1,4.95,0.00,22.8,21.6,00.0,31.6,24.5,09.3,0000.0,0006.24,0002.68,0002.00
2023-02-08 15:40:00,,0824.1,5.03,0.00,22.8,21.6,00.0,31.6,24.5,09.6,0000.0,0006.67,0002.68,0002.00
2023-02-08 15:41:00,,0824.1,5.00,0.00,22.8,21.6,00.0,31.6,24.5,09.7,0000.0,0006.70,0002.68,0001.99
2023-02-08 15:42:00,,0824.0,4.98,0.00,22.9,21.6,00.0,31.6,24.5,09.7,0000.0,0006.45,0002.65,0001.97
2023-02-08 15:43:00,,0824.0,4.97,0.00,22.9,21.6,00.0,31.6,24.6,09.6,0000.0,0006.11,0002.58,0001.94
2023-02-08 15:44:00,,0824.0,5.01,0.00,22.9,21.6,00.0,31.6,24.6,09.4,0000.0,0005.51,0002.50,0001.91
2023-02-08 15:45:00,,0824.0,5.02,0.00,22.9,21.6,00.0,31.6,24.6,09.0,0000.0,0005.56,0002.43,0001.86
2023-02-08 15:46:00,,0824.0,5.03,0.00,22.9,21.7,00.0,31.6,24.6,09.3,0000.0,0005.60,0002.38,0001.82
2023-02-08 15:47:00,,0824.1,5.02,0.00,22.9,21.7,00.0,31.6,24.6,09.3,0000.0,0005.26,0002.32,0001.77
2023-02-08 15:48:00,,0824.0,5.01,0.00,22.9,21.7,00.0,31.6,24.6,09.1,0000.0,0005.02,0002.27,0001.72
2023-02-08 15:49:00,,0824.0,5.01,0.00,22.9,21.7,00.0,31.7,24.6,09.1,0000.0,0005.03,0002.24,0001.68
2023-02-08 15:50:00,,0824.0,5.00,0.00,22.9,21.7,00.0,31.7,24.6,09.2,0000.0,0005.10,0002.24,0001.65
2023-02-08 15:51:00,,0824.1,5.02,0.00,22.9,21.7,00.0,31.7,24.6,09.2,0000.0,0004.80,0002.23,0001.62
2023-02-08 15:52:00,,0824.0,4.99,0.00,22.9,21.7,00.0,31.7,24.6,09.3,0000.0,0004.53,0002.19,0001.59
2023-02-08 15:53:00,,0824.0,5.00,0.00,22.9,21.7,00.0,31.7,24.7,09.7,0000.0,0004.38,0002.17,0001.57
2023-02-08 15:54:00,,0824.0,5.02,0.00,22.9,21.7,00.0,31.7,24.7,09.8,0000.0,0004.19,0002.15,0001.57
2023-02-08 15:55:00,,0824.0,5.00,0.00,23.0,21.7,00.0,31.7,24.7,10.3,0000.0,0004.42,0002.20,0001.56
2023-02-08 15:56:00,,0824.0,5.06,0.00,23.0,21.8,00.0,31.7,24.7,11.7,0000.0,0005.01,0002.34,0001.63
2023-02-08 15:57:00,,0823.9,5.02,0.00,23.0,21.8,00.0,31.7,24.7,11.8,0000.0,0006.17,0002.46,0001.71
2023-02-08 15:58:00,,0823.9,5.00,0.00,23.0,21.8,00.0,31.7,24.7,12.0,0000.0,0006.07,0002.49,0001.77
2023-02-08 15:59:00,,0823.9,5.01,0.00,23.0,21.8,00.0,31.7,24.7,11.8,0000.0,0006.41,0002.59,0001.83
